sat.trackr.live / text

‹ back to catalog

CENTISPACE-2 S8

NORAD 68357 · 2026-060H

PAYLOAD ACTIVE UNKNOWN

§ Identity

Operator
Country
PRC
Launch date
2026-03-22
Launch site
YSLA
Launch vehicle
Mass (kg)
RCS (m²)

External: N2YO · Heavens-Above · Gunter

§ Orbital elements

Epoch: 2026-09-17T20:18:32.747040Z

Period
101.24 min
Inclination
54.9813°
Eccentricity
0.0007908
Mean motion
14.22369198 rev/d
Perigee alt
811.7 km
Apogee alt
823.0 km
Semi-major
7,195.5 km
B*
1.3019e-4
RAAN
35.7154°
Arg perigee
273.7029°
Mean anomaly
86.3043°
Rev number
2,616

§ Raw data

CENTISPACE-2 S81 68357U 26060H   26260.84621235  .00000135  00000+0  13019-3 0  99952 68357  54.9813  35.7154 0007908 273.7029  86.3043 14.22369198 26164

JSON: /api/v1/satellites/68357 · /tle

For live sub-satellite position, see the globe view (requires WebGL).

§ Visibility from observer

Set your observer location to see the next 7 days of passes ≥ 10°. The values pass through the URL so the page stays shareable.

No JS? Fill the form by hand. The geolocation button needs JavaScript.

§ Radio — SatNOGS DB

ModeDescriptionDownlinkUplink
FM S-band telemetry 2.214 GHz

1 transmitter · refreshed weekly from db.satnogs.org